COSMOS 1641

Satellite information

Favourite Embed

Satellite Type and Status

PAYLOADIN ORBIT

Key statistics

Satellite COSMOS 1641 at a glance.

Uptime

14877

Days in orbit

Revolutions

≈ 12.5

Per day

Orbit

LEO

Low Earth Orbit

Inclination

74.1

Latest

Satellite identification and parameters

Extended collection of information and parameters for COSMOS 1641.

Object identification

Identified? True

Debris? False

Object name: COSMOS 1641

International designator: 1985-023G

Object number (NORAD): 15623

Object ID (CCSDS): 15623

Country: COMMONWEALTH OF INDEPENDENT STATES (CIS)

Current information (Y/N): Y

RCS size: MEDIUM

Orbital parameters

Period: 114.781 minutes

Inclination: 74.0562 deg

SMA: 7823.618 km

Apoapsis: 1479.832 km

Periapsis: 1411.134 km

RAAN: 86.4518 deg

Eccentricy: 0.00439047

Argument of periapsis: 203.1904 deg

Mean anomaly: 181.6921 deg

Mean motion: 12.54559612 rev/day

Mean motion (dot): 0.00000002 rev/day2

B* drag term: 0.00010954423 1/REarth

Two-line elements (TLE)

Creation date: Dec. 12, 2025, 10:14 a.m.

Reference frame: TEME

Reference center: EARTH

Epoch: Dec. 12, 2025, 5:48 a.m. UTC

TLE line 0: 0 COSMOS 1641

TLE line 1: 1 15623U 85023G 25346.24207847 .00000002 00000-0 10954-3 0 9993

TLE line 2: 2 15623 74.0562 86.4518 0043905 203.1904 181.6921 12.54559612865282

Live tracking on map

Real-time ground track for satellite COSMOS 1641.

In-orbit conjunctions

There are no conjunctions computed for COSMOS 1641, at the moment. Check back to stay up to date, as we update our databases every day.

Go to all conjunctions

Associated space launch

Military communications satellites

COSMOS 1641 was lifted into orbit during the mission ‘Kosmos-3M | Strela-1M 289-296’, on board a Kosmos-3M space rocket.

The launch took place on March 21, 1985, 12:08 a.m. from 132/2.

For more information about the launch, click the button.

Launch to space Kosmos-3M | Strela-1M 289-296
Kosmos-3M | Strela-1M 289-296

Agency: N/A

Status: Launch Successful

Launch date: March 21, 1985, 12:08 a.m. UTC

Rocket: Kosmos-3M

Launch pad: 132/2

Location: Plesetsk Cosmodrome, Russian Federation

...

Latest news about this satellite

There are no fresh news available about this satellite. Check back as we update our databases every day.


Newsletter sign-up

Weekly statistics, charts and insights to help you stay on top of the space industry.